| time (UTC) | temp F | wind direction | speed MPH | gust MPH | rain 1hr in | rain 24hr in | rain mn in | humidity % | barometer mb |
| 20260504223535 | 69 | 132 | 2.0 | 5.0 | 0.00 | 0.00 | 0.00 | 57 | 1016.1 |
| 20260504223049 | 70 | 153 | 1.0 | 5.0 | 0.00 | 0.00 | 0.00 | 58 | 1016.0 |
| 20260504222536 | 70 | 150 | 1.0 | 5.0 | 0.00 | 0.00 | 0.00 | 59 | 1016.0 |
| 20260504222036 | 70 | 150 | 1.0 | 5.0 | 0.00 | 0.00 | 0.00 | 60 | 1016.0 |
| 20260504221558 | 70 | 0 | 1.0 | 5.0 | 0.00 | 0.00 | 0.00 | 59 | 1016.1 |
| 20260504221034 | 70 | 126 | 2.0 | 4.0 | 0.00 | 0.00 | 0.00 | 58 | 1016.1 |
| 20260504220532 | 70 | 144 | 1.0 | 4.0 | 0.00 | 0.00 | 0.00 | 59 | 1016.0 |
| 20260504220040 | 70 | 140 | 1.0 | 5.0 | 0.00 | 0.00 | 0.00 | 60 | 1016.1 |
| 20260504215532 | 70 | 141 | 1.0 | 5.0 | 0.00 | 0.00 | 0.00 | 59 | 1016.2 |
| 20260504215032 | 70 | 0 | 1.0 | 7.0 | 0.00 | 0.00 | 0.00 | 58 | 1016.2 |
| 20260504214544 | 70 | 155 | 2.0 | 7.0 | 0.00 | 0.00 | 0.00 | 56 | 1016.0 |
| 20260504214036 | 70 | 140 | 2.0 | 5.0 | 0.00 | 0.00 | 0.00 | 57 | 1016.2 |
| 20260504213535 | 70 | 140 | 1.0 | 4.0 | 0.00 | 0.00 | 0.00 | 57 | 1016.2 |
| 20260504213050 | 70 | 147 | 2.0 | 5.0 | 0.00 | 0.00 | 0.00 | 57 | 1016.2 |
| 20260504212536 | 71 | 142 | 1.0 | 5.0 | 0.00 | 0.00 | 0.00 | 58 | 1016.2 |
| 20260504212035 | 71 | 161 | 2.0 | 5.0 | 0.00 | 0.00 | 0.00 | 58 | 1016.1 |
| 20260504211834 | 71 | 134 | 1.0 | 5.0 | 0.00 | 0.00 | 0.00 | 59 | 1015.9 |
| 20260504205035 | 71 | 141 | 1.0 | 5.0 | 0.00 | 0.00 | 0.00 | 59 | 1016.3 |
| 20260504204546 | 71 | 146 | 2.0 | 5.0 | 0.00 | 0.00 | 0.00 | 58 | 1016.2 |
| 20260504204032 | 71 | 148 | 1.0 | 5.0 | 0.00 | 0.00 | 0.00 | 59 | 1016.4 |
| 20260504203532 | 71 | 150 | 1.0 | 5.0 | 0.00 | 0.00 | 0.00 | 58 | 1016.4 |
| 20260504203042 | 71 | 148 | 1.0 | 5.0 | 0.00 | 0.00 | 0.00 | 59 | 1016.4 |
| 20260504202531 | 71 | 157 | 2.0 | 5.0 | 0.00 | 0.00 | 0.00 | 59 | 1016.4 |
| 20260504202032 | 71 | 152 | 1.0 | 5.0 | 0.00 | 0.00 | 0.00 | 59 | 1016.4 |
| 20260504201544 | 72 | 151 | 2.0 | 5.0 | 0.00 | 0.00 | 0.00 | 56 | 1016.3 |
| 20260504201033 | 72 | 141 | 1.0 | 7.0 | 0.00 | 0.00 | 0.00 | 59 | 1016.5 |
| 20260504200533 | 72 | 138 | 2.0 | 7.0 | 0.00 | 0.00 | 0.00 | 58 | 1016.4 |
| 20260504200046 | 72 | 146 | 2.0 | 6.0 | 0.00 | 0.00 | 0.00 | 58 | 1016.4 |
| 20260504195533 | 72 | 138 | 2.0 | 6.0 | 0.00 | 0.00 | 0.00 | 57 | 1016.3 |
| 20260504195032 | 72 | 153 | 2.0 | 6.0 | 0.00 | 0.00 | 0.00 | 58 | 1016.4 |
| 20260504194543 | 72 | 144 | 2.0 | 6.0 | 0.00 | 0.00 | 0.00 | 57 | 1016.4 |
| 20260504194032 | 72 | 163 | 2.0 | 5.0 | 0.00 | 0.00 | 0.00 | 56 | 1016.4 |
| 20260504193533 | 72 | 155 | 1.0 | 7.0 | 0.00 | 0.00 | 0.00 | 57 | 1016.5 |
| 20260504193102 | 72 | 161 | 3.0 | 7.0 | 0.00 | 0.00 | 0.00 | 57 | 1016.4 |
| 20260504192532 | 73 | 166 | 2.0 | 5.0 | 0.00 | 0.00 | 0.00 | 57 | 1016.5 |
| 20260504192034 | 73 | 146 | 2.0 | 5.0 | 0.00 | 0.00 | 0.00 | 57 | 1016.5 |
| 20260504191550 | 73 | 146 | 2.0 | 5.0 | 0.00 | 0.00 | 0.00 | 56 | 1016.6 |
| 20260504191034 | 73 | 155 | 1.0 | 5.0 | 0.00 | 0.00 | 0.00 | 58 | 1016.5 |
| 20260504190533 | 73 | 152 | 2.0 | 5.0 | 0.00 | 0.00 | 0.00 | 57 | 1016.6 |
| 20260504190046 | 72 | 132 | 2.0 | 5.0 | 0.00 | 0.00 | 0.00 | 56 | 1016.6 |
| 20260504185533 | 72 | 168 | 1.0 | 3.0 | 0.00 | 0.00 | 0.00 | 57 | 1016.9 |
| 20260504185032 | 73 | 148 | 1.0 | 5.0 | 0.00 | 0.00 | 0.00 | 57 | 1016.9 |
| 20260504184545 | 73 | 136 | 2.0 | 5.0 | 0.00 | 0.00 | 0.00 | 57 | 1017.0 |
| 20260504184034 | 73 | 126 | 1.0 | 5.0 | 0.00 | 0.00 | 0.00 | 56 | 1017.0 |
| 20260504183533 | 73 | 149 | 1.0 | 5.0 | 0.00 | 0.00 | 0.00 | 57 | 1017.1 |
| 20260504183044 | 73 | 157 | 2.0 | 6.0 | 0.00 | 0.00 | 0.00 | 56 | 1017.1 |
| 20260504182532 | 73 | 155 | 2.0 | 6.0 | 0.00 | 0.00 | 0.00 | 57 | 1017.2 |
| 20260504182033 | 73 | 136 | 0.0 | 4.0 | 0.00 | 0.00 | 0.00 | 58 | 1017.2 |
| 20260504181542 | 73 | 138 | 1.0 | 5.0 | 0.00 | 0.00 | 0.00 | 57 | 1017.2 |
| 20260504181033 | 72 | 163 | 1.0 | 5.0 | 0.00 | 0.00 | 0.00 | 57 | 1017.1 |
| 20260504180533 | 73 | 165 | 2.0 | 5.0 | 0.00 | 0.00 | 0.00 | 55 | 1017.2 |
| 20260504180059 | 73 | 166 | 2.0 | 5.0 | 0.00 | 0.00 | 0.00 | 56 | 1017.0 |
| 20260504175534 | 73 | 167 | 2.0 | 5.0 | 0.00 | 0.00 | 0.00 | 54 | 1017.1 |
| 20260504175034 | 73 | 140 | 2.0 | 4.0 | 0.00 | 0.00 | 0.00 | 56 | 1017.1 |
| 20260504174543 | 73 | 136 | 1.0 | 5.0 | 0.00 | 0.00 | 0.00 | 55 | 1017.2 |
| 20260504174033 | 73 | 134 | 1.0 | 5.0 | 0.00 | 0.00 | 0.00 | 55 | 1017.3 |
| 20260504173533 | 73 | 167 | 1.0 | 5.0 | 0.00 | 0.00 | 0.00 | 55 | 1017.2 |
| 20260504173045 | 74 | 141 | 1.0 | 3.0 | 0.00 | 0.00 | 0.00 | 55 | 1017.2 |
| 20260504172534 | 73 | 145 | 0.0 | 3.0 | 0.00 | 0.00 | 0.00 | 54 | 1017.3 |
| 20260504172032 | 73 | 146 | 0.0 | 4.0 | 0.00 | 0.00 | 0.00 | 53 | 1017.3 |
| 20260504171541 | 73 | 144 | 0.0 | 4.0 | 0.00 | 0.00 | 0.00 | 52 | 1017.3 |
| 20260504171033 | 73 | 180 | 1.0 | 4.0 | 0.00 | 0.00 | 0.00 | 50 | 1017.4 |
| 20260504170532 | 72 | 182 | 1.0 | 3.0 | 0.00 | 0.00 | 0.00 | 51 | 1017.4 |
| 20260504151032 | 68 | 0 | 0.0 | 3.0 | 0.00 | 0.00 | 0.00 | 59 | 1018.2 |
| 20260504150535 | 67 | 0 | 0.0 | 3.0 | 0.00 | 0.00 | 0.00 | 61 | 1018.2 |
| 20260504141033 | 63 | 0 | 0.0 | 2.0 | 0.00 | 0.00 | 0.00 | 73 | 1018.5 |
| 20260504140531 | 62 | 0 | 0.0 | 1.0 | 0.00 | 0.00 | 0.00 | 76 | 1018.5 |
| 20260504130533 | 58 | 0 | 0.0 | 0.0 | 0.00 | 0.00 | 0.00 | 91 | 1018.7 |
| 20260504110533 | 51 | 0 | 0.0 | 1.0 | 0.00 | 0.00 | 0.00 | 93 | 1019.0 |
| 20260504100533 | 51 | 0 | 0.0 | 0.0 | 0.00 | 0.00 | 0.00 | 92 | 1018.5 |
| 20260504081544 | 51 | 0 | 0.0 | 0.0 | 0.00 | 0.00 | 0.00 | 90 | 1018.7 |
| 20260504081032 | 51 | 0 | 0.0 | 0.0 | 0.00 | 0.00 | 0.00 | 90 | 1018.8 |
| 20260504080532 | 52 | 0 | 0.0 | 0.0 | 0.00 | 0.00 | 0.00 | 90 | 1018.8 |
| 20260504050532 | 52 | 0 | 0.0 | 0.0 | 0.00 | 0.00 | 0.00 | 91 | 1018.8 |
| 20260504045536 | 52 | 0 | 0.0 | 0.0 | 0.00 | 0.00 | 0.00 | 90 | 1018.9 |
| 20260504045032 | 52 | 0 | 0.0 | 0.0 | 0.00 | 0.00 | 0.00 | 90 | 1018.9 |
| 20260504044543 | 52 | 0 | 0.0 | 0.0 | 0.00 | 0.00 | 0.00 | 90 | 1018.9 |
| 20260504044033 | 52 | 0 | 0.0 | 0.0 | 0.00 | 0.00 | 0.00 | 90 | 1018.9 |
| 20260504043533 | 51 | 0 | 0.0 | 0.0 | 0.00 | 0.00 | 0.00 | 90 | 1018.9 |
| 20260504043050 | 51 | 0 | 0.0 | 0.0 | 0.00 | 0.00 | 0.00 | 90 | 1018.9 |
| 20260504042533 | 51 | 0 | 0.0 | 0.0 | 0.00 | 0.00 | 0.00 | 90 | 1018.9 |
| 20260504042030 | 51 | 0 | 0.0 | 0.0 | 0.00 | 0.00 | 0.00 | 89 | 1018.9 |
| 20260504041550 | 51 | 0 | 0.0 | 0.0 | 0.00 | 0.00 | 0.00 | 89 | 1018.9 |
| 20260504041032 | 51 | 0 | 0.0 | 0.0 | 0.00 | 0.00 | 0.00 | 89 | 1019.0 |
| 20260504040534 | 51 | 0 | 0.0 | 0.0 | 0.00 | 0.00 | 0.00 | 88 | 1019.0 |
| 20260504040053 | 51 | 0 | 0.0 | 0.0 | 0.00 | 0.00 | 0.00 | 88 | 1019.0 |
| 20260504035535 | 51 | 0 | 0.0 | 0.0 | 0.00 | 0.00 | 0.00 | 88 | 1018.9 |
| 20260504035033 | 51 | 0 | 0.0 | 0.0 | 0.00 | 0.00 | 0.00 | 87 | 1018.9 |
| 20260504034546 | 51 | 0 | 0.0 | 0.0 | 0.00 | 0.00 | 0.00 | 87 | 1019.0 |
| 20260504034035 | 51 | 0 | 0.0 | 0.0 | 0.00 | 0.00 | 0.00 | 87 | 1019.0 |
| 20260504033533 | 51 | 0 | 0.0 | 0.0 | 0.00 | 0.00 | 0.00 | 86 | 1018.9 |
| 20260504033043 | 51 | 0 | 0.0 | 0.0 | 0.00 | 0.00 | 0.00 | 86 | 1019.1 |
| 20260504032533 | 51 | 0 | 0.0 | 0.0 | 0.00 | 0.00 | 0.00 | 86 | 1019.1 |
| 20260504032033 | 51 | 0 | 0.0 | 0.0 | 0.00 | 0.00 | 0.00 | 86 | 1019.1 |
| 20260504031546 | 52 | 0 | 0.0 | 0.0 | 0.00 | 0.00 | 0.00 | 86 | 1019.1 |
| 20260504031032 | 52 | 0 | 0.0 | 0.0 | 0.00 | 0.00 | 0.00 | 86 | 1019.1 |
| 20260504030532 | 52 | 0 | 0.0 | 0.0 | 0.00 | 0.00 | 0.00 | 86 | 1019.1 |
| 20260504030043 | 52 | 0 | 0.0 | 0.0 | 0.00 | 0.00 | 0.00 | 85 | 1019.0 |
| 20260504025532 | 52 | 0 | 0.0 | 0.0 | 0.00 | 0.00 | 0.00 | 85 | 1018.9 |
| 20260504025033 | 52 | 0 | 0.0 | 0.0 | 0.00 | 0.00 | 0.00 | 85 | 1018.9 |
| 20260504024601 | 52 | 0 | 0.0 | 0.0 | 0.00 | 0.00 | 0.00 | 85 | 1018.9 |
| 20260504024032 | 52 | 0 | 0.0 | 0.0 | 0.00 | 0.00 | 0.00 | 85 | 1018.8 |
| 20260504023532 | 52 | 0 | 0.0 | 0.0 | 0.00 | 0.00 | 0.00 | 85 | 1018.9 |
| 20260504023038 | 53 | 0 | 0.0 | 0.0 | 0.00 | 0.00 | 0.00 | 84 | 1018.8 |
| 20260504022532 | 53 | 0 | 0.0 | 0.0 | 0.00 | 0.00 | 0.00 | 84 | 1018.8 |
| 20260504022032 | 53 | 0 | 0.0 | 0.0 | 0.00 | 0.00 | 0.00 | 84 | 1018.9 |
| 20260504021544 | 53 | 0 | 0.0 | 0.0 | 0.00 | 0.00 | 0.00 | 84 | 1018.7 |
| 20260504021032 | 53 | 0 | 0.0 | 0.0 | 0.00 | 0.00 | 0.00 | 83 | 1018.6 |
| 20260504020531 | 53 | 0 | 0.0 | 0.0 | 0.00 | 0.00 | 0.00 | 82 | 1018.5 |
| 20260504020048 | 53 | 0 | 0.0 | 0.0 | 0.00 | 0.00 | 0.00 | 82 | 1018.6 |
| 20260504015532 | 53 | 0 | 0.0 | 0.0 | 0.00 | 0.01 | 0.00 | 82 | 1018.5 |
| 20260504015032 | 54 | 0 | 0.0 | 0.0 | 0.00 | 0.01 | 0.00 | 81 | 1018.4 |
| 20260504014545 | 54 | 0 | 0.0 | 0.0 | 0.00 | 0.01 | 0.00 | 81 | 1018.4 |
| 20260504014033 | 54 | 0 | 0.0 | 0.0 | 0.00 | 0.01 | 0.00 | 81 | 1018.3 |
| 20260504013532 | 54 | 0 | 0.0 | 0.0 | 0.00 | 0.01 | 0.00 | 80 | 1018.2 |
| 20260504013051 | 54 | 0 | 0.0 | 0.0 | 0.00 | 0.01 | 0.00 | 80 | 1018.1 |
| 20260504012532 | 54 | 0 | 0.0 | 0.0 | 0.00 | 0.01 | 0.00 | 79 | 1018.1 |
| 20260504012032 | 54 | 0 | 0.0 | 0.0 | 0.00 | 0.01 | 0.00 | 79 | 1018.2 |
| 20260504011537 | 54 | 0 | 0.0 | 0.0 | 0.00 | 0.01 | 0.00 | 79 | 1018.0 |
| 20260504011031 | 55 | 0 | 0.0 | 0.0 | 0.00 | 0.01 | 0.00 | 77 | 1017.9 |
| 20260504010531 | 55 | 0 | 0.0 | 0.0 | 0.00 | 0.01 | 0.00 | 77 | 1017.8 |
| 20260504010044 | 55 | 0 | 0.0 | 0.0 | 0.00 | 0.01 | 0.00 | 76 | 1017.9 |
| 20260504005542 | 55 | 0 | 0.0 | 0.0 | 0.00 | 0.01 | 0.00 | 76 | 1017.7 |
| 20260504005033 | 55 | 0 | 0.0 | 0.0 | 0.00 | 0.01 | 0.00 | 75 | 1017.7 |
| 20260504004547 | 55 | 0 | 0.0 | 0.0 | 0.00 | 0.01 | 0.00 | 75 | 1017.6 |
| 20260504004032 | 56 | 0 | 0.0 | 0.0 | 0.00 | 0.01 | 0.00 | 76 | 1017.5 |
| 20260504003532 | 56 | 0 | 0.0 | 0.0 | 0.00 | 0.01 | 0.00 | 74 | 1017.6 |
| 20260504003048 | 56 | 0 | 0.0 | 0.0 | 0.00 | 0.01 | 0.00 | 73 | 1017.5 |
| 20260504002532 | 57 | 0 | 0.0 | 0.0 | 0.00 | 0.01 | 0.00 | 73 | 1017.4 |
| 20260504002034 | 57 | 0 | 0.0 | 0.0 | 0.00 | 0.01 | 0.00 | 72 | 1017.3 |
| 20260504001545 | 58 | 0 | 0.0 | 0.0 | 0.00 | 0.01 | 0.00 | 72 | 1017.3 |
| 20260504001032 | 58 | 0 | 0.0 | 0.0 | 0.00 | 0.01 | 0.00 | 70 | 1017.4 |
| 20260504000533 | 59 | 0 | 0.0 | 0.0 | 0.00 | 0.01 | 0.00 | 69 | 1017.3 |
| 20260504000112 | 59 | 0 | 0.0 | 0.0 | 0.00 | 0.01 | 0.00 | 68 | 1017.2 |
| 20260503235533 | 60 | 0 | 0.0 | 0.0 | 0.00 | 0.05 | 0.00 | 67 | 1017.2 |
| 20260503235032 | 60 | 0 | 0.0 | 0.0 | 0.00 | 0.05 | 0.00 | 65 | 1017.1 |
| 20260503234551 | 60 | 0 | 0.0 | 0.0 | 0.00 | 0.05 | 0.00 | 61 | 1017.1 |
| 20260503234032 | 60 | 0 | 0.0 | 0.0 | 0.00 | 0.05 | 0.00 | 60 | 1017.1 |
| 20260503233533 | 60 | 0 | 0.0 | 0.0 | 0.00 | 0.05 | 0.00 | 59 | 1017.1 |
| 20260503233043 | 61 | 0 | 0.0 | 0.0 | 0.00 | 0.05 | 0.00 | 60 | 1017.0 |
| 20260503232533 | 61 | 0 | 0.0 | 0.0 | 0.00 | 0.05 | 0.00 | 57 | 1017.1 |
| 20260503232032 | 61 | 0 | 0.0 | 0.0 | 0.00 | 0.05 | 0.00 | 57 | 1016.9 |
| 20260503231548 | 62 | 0 | 0.0 | 0.0 | 0.00 | 0.05 | 0.00 | 59 | 1017.0 |
| 20260503231033 | 62 | 0 | 0.0 | 0.0 | 0.00 | 0.05 | 0.00 | 59 | 1017.0 |
| 20260503230534 | 62 | 0 | 0.0 | 0.0 | 0.00 | 0.05 | 0.00 | 59 | 1016.9 |
| 20260503230042 | 62 | 0 | 0.0 | 0.0 | 0.00 | 0.05 | 0.00 | 58 | 1016.9 |
| 20260503225534 | 62 | 0 | 0.0 | 0.0 | 0.00 | 0.15 | 0.00 | 57 | 1016.8 |
| 20260503225033 | 63 | 0 | 0.0 | 0.0 | 0.00 | 0.15 | 0.00 | 58 | 1016.8 |
| 20260503224545 | 63 | 0 | 0.0 | 0.0 | 0.00 | 0.15 | 0.00 | 54 | 1016.8 |
| 20260503224034 | 63 | 0 | 0.0 | 0.0 | 0.00 | 0.15 | 0.00 | 54 | 1016.7 |